Regional Weather Roundup
Issued by NWS

Home | Current Version | Previous Version | Text Only | Print | Product List | Glossary Off
Versions: 1 2 3 4 5 6 7 8 9 10 11 12 13 14 15 16 17 18 19 20 21 22 23 24 25 26 27 28 29 30 31 32 33 34 35 36 37 38 39 40 41 42 43 44 45 46 47 48 49 50

000
ASUS43 KLOT 010906
RWRIL

ILLINOIS REGIONAL WEATHER ROUNDUP
NATIONAL WEATHER SERVICE CHICAGO/ROMEOVILLE IL
400 AM CDT WED OCT 01 2014

NOTE: "FAIR" INDICATES FEW OR NO CLOUDS BELOW 12,000 FEET WITH NO
SIGNIFICANT WEATHER AND/OR OBSTRUCTIONS TO VISIBILITY.

* THESE STATIONS ARE NOT UNDER NWS QUALITY CONTROL. THEY ALSO MAY NOT
  REPORT WEATHER SUCH AS PRECIPITATION OR FOG.

ILZ001-002-007-009-015-016-024-011000-
NORTHWEST ILLINOIS

CITY           SKY/WX    TMP DP  RH WIND       PRES   REMARKS
MOLINE         NOT AVBL
SAVANNA*       CLEAR     48  45  89 E3        29.97R
$$

ILZ003-004-008-010-011-017-018-011000-
NORTH CENTRAL ILLINOIS

CITY           SKY/WX    TMP DP  RH WIND       PRES   REMARKS
ROCKFORD       PTCLDY    50  47  89 E6        30.00S
FREEPORT*      PTCLDY    46  45  95 E5        29.99S
ROCHELLE*      CLEAR     46  45  97 E6        29.99S
DE KALB*       CLOUDY    49  46  87 SE7       29.99F
PERU*          CLEAR     51  48  90 E9        29.98S
$$

ILZ005-006-012>014-019>023-011000-
NORTHEAST ILLINOIS

CITY           SKY/WX    TMP DP  RH WIND       PRES   REMARKS
CHICAGO-OHARE  CLOUDY    54  46  74 SE6       30.00S
CHICAGO-MIDWAY PTCLDY    54  46  74 SE3       30.00S
AURORA         CLEAR     50  44  80 SE8       30.00F
LANSING*       CLEAR     46  44  95 CALM      30.01S
JOLIET*        CLEAR     47  45  90 CALM      30.00S
WAUKEGAN       CLOUDY    54  47  77 SE5       30.00S
DUPAGE AIRPORT PTCLDY    52  45  77 E6        29.99F
KANKAKEE*      CLEAR     45  44  96 E3        30.01S
WHEELING       CLOUDY    56  47  71 S5        30.02S
MORRIS*        CLEAR     48  47  96 E3        29.99F
ROMEOVILLE*    CLEAR     47  44  92 E5        30.01S
NORTHERLY ISL    N/A     56  47  71 E12         N/A
$$

LMZ740>746-011000-
SOUTHERN LAKE MICHIGAN

STATION/POSITION SKY/WX   TEMP    WIND        PRES    VSBY  WAVE
                          AIR SEA DIR/SP/G                  HT/PER
                          (F)     (DEG/KT/KT) (MB)    (MI)  (FT/S)
SOUTHERN BUOY              57 62  130/ 10/ 14 1016.4S         2/ 5
WAUKEGAN HARBOR            56     130/ 11/ 14   N/A
HARRISON CRIB              56     130/ 13/ 18   N/A
BURNHAM HARBOR             56     100/ 10/ 13   N/A
CALUMET HARBOR             56     110/  8/ 11 1014.9S
MICHIGAN CITY              53      90/  3/  4   N/A
MICHIGAN CITY 6N           56 64  120/  6/ 10   N/A           2/ 2
ST. JOSEPH                 55 62  110/  8/ 12   N/A           2/ 2
$$

ILZ025>027-034>036-040-047-049-050-058-095>099-011000-
WEST-CENTRAL ILLINOIS

CITY           SKY/WX    TMP DP  RH WIND       PRES   REMARKS
QUINCY         CLEAR     57  53  86 SE12      29.88S
GALESBURG*     PTCLDY    50  47  88 E7        29.93S
MACOMB*        CLEAR     51  49  91 E9        29.95R
JACKSONVILLE*  CLEAR     55  51  88 E6        29.93S FOG
PITTSFIELD*    CLEAR     57  53  88 E5        29.92R
$$

ILZ028>032-037-038-041>044-048-051>054-059>061-011000-
CENTRAL ILLINOIS

CITY           SKY/WX    TMP DP  RH WIND       PRES   REMARKS
PONTIAC        CLEAR     50  48  93 E6        29.98F
DECATUR        CLEAR     50  47  89 E6        29.96S
PEORIA         PTCLDY    54  46  74 E8        29.95S
LACON*         CLEAR     49  45  86 E6        29.96S
LINCOLN*       PTCLDY    51  48  89 E3        29.93F
SPRINGFIELD    CLEAR     53  49  86 E7        29.94S
TAYLORVILLE    CLEAR     52  48  87 E6        29.94S
$$

ILZ033-039-045-046-055>057-062-063-011000-
EAST-CENTRAL ILLINOIS

CITY           SKY/WX    TMP DP  RH WIND       PRES   REMARKS
CHAMPAIGN      CLEAR     48  46  93 E8        29.97S
DANVILLE*      CLEAR     47  46  95 E3        29.96S
RANTOUL*       CLEAR     50  46  86 E6        29.98F
MATTOON        PTCLDY    51  48  89 CALM      29.95S
PARIS*         CLEAR     50  49  97 CALM      29.98S
$$

ILZ079-100>102-011000-
SOUTHWEST ILLINOIS

CITY           SKY/WX    TMP DP  RH WIND       PRES   REMARKS
ALTON          CLEAR     58  55  92 E3        29.91S
BELLEVILLE     CLEAR     59  59 100 CALM      29.91R FOG
CAHOKIA*       CLEAR     63  59  87 SE6       29.90S
SPARTA*        CLEAR     63  59  88 SE8       29.91S FOG
$$

ILZ064>066-069>071-074>076-080>082-084>086-088>090-092>094-011000-
SOUTH-CENTRAL ILLINOIS

CITY           SKY/WX    TMP DP  RH WIND       PRES   REMARKS
CARBONDALE     CLEAR     55  54  96 CALM      29.91R FOG
CAIRO*         FOG       57  54  92 CALM      29.89S VSB 1/4
EFFINGHAM*     RAIN      55  49  83 E3        29.95R
MARION         CLEAR     64  61  88 E5        29.92R
CENTRALIA*     CLEAR     58  55  89 E5        29.92S
SALEM*         CLEAR     60  57  91 E3        29.93R
METROPOLIS*    CLEAR     55  55 100 CALM      29.89S FOG
$$

ILZ067-068-072-073-078-083-087-091-011000-
SOUTHEAST ILLINOIS

CITY           SKY/WX    TMP DP  RH WIND       PRES   REMARKS
LAWRENCEVILLE  CLEAR     56  53  90 NE5       29.95S
FLORA*         CLEAR     56  54  92 CALM      29.94S
FAIRFIELD*     CLEAR     57  55  94 CALM      29.93S
HARRISBURG*    CLEAR     61  61  99 CALM      29.93R FOG
ROBINSON*      CLEAR     55  53  94 NE3       29.96S
CARMI*         FOG       57  57  99 CALM      29.93R VSB 1/2
$$

ABBREVIATIONS USED IN REMARKS
   TC - TEMPERATURE IN CELSIUS
  WCI - WIND CHILL INDEX
   HX - HEAT INDEX
  VSB - VISIBILITY
$$




USA.gov is the U.S. government's official web portal to all federal, state and local government web resources and services.